Location: Albany
(35.0000°S, 118.0000°E)
Time: 09:24:47
(UTC-05:00)

Cosmos 1933 - Visible Passes

Search period start: 08 February 2016 00:00
Search period end: 18 February 2016 00:00
Orbit: 550 x 567 km, 82.5° (Epoch: 08 February)

Date Brightness Start Highest point End Pass type
(mag) Time Alt. Az. Time Alt. Az. Time Alt. Az.
11 Feb 3.6 16:06:08 10° SSW 16:10:13 52° W 16:14:14 10° N visible
12 Feb 6.7 14:30:15 10° SE 14:31:42 12° ESE 14:33:10 10° E visible
12 Feb 3.8 16:04:33 10° SSW 16:08:32 43° W 16:12:27 10° NNW visible
13 Feb 6.5 14:27:57 10° SE 14:30:06 14° ESE 14:32:15 10° ENE visible
13 Feb 4.0 16:02:59 10° SSW 16:06:50 36° W 16:10:38 10° NNW visible
14 Feb 6.3 14:25:52 10° SE 14:28:30 16° ESE 14:31:06 10° ENE visible
14 Feb 4.2 16:01:27 10° SSW 16:05:07 30° W 16:08:46 10° NNW visible
15 Feb 6.1 14:23:53 10° SSE 14:26:53 19° ESE 14:29:51 10° ENE visible
15 Feb 4.4 15:59:57 10° SSW 16:03:25 26° W 16:06:52 10° NW visible
16 Feb 5.8 14:21:57 10° SSE 14:25:15 22° ESE 14:28:30 10° NE visible
16 Feb 4.7 15:58:28 10° SW 16:01:42 22° W 16:04:54 10° NW visible
17 Feb 5.5 14:20:05 10° SSE 14:23:37 26° ESE 14:27:07 10° NE visible
17 Feb 4.9 15:57:04 10° SW 15:59:59 19° W 16:02:52 10° NW visible
